COSMOS 1275 DEB, 17631

Orbit data source: Space-Track

COSMOS 1275 DEB, 17631 is space debris in LEO originally from a launch on Thu, 04 Jun 1981 UTC launched from the Plesetsk Missile And Space Complex (PKMTR). Debris objects in space refer to the collection of defunct objects orbiting the Earth. Examples of debris include non-operational satellites, rocket bodies, and fragments generated from explosions, collisions, or faulty payload assembly.

Loading next visibility...
Identifier
17631, 1981-053LA
Orbit
LEO
Country
Flag of CISCIS
Related business
Manufacturer
Unknown
Mission
Spacecraft
Bus & Motor
Unknown
Mass
Unknown
Launch date (UTC)
1981-06-04 (44 years ago)
Launch vehicle
Unknown
Launch site
Plesetsk Missile And Space Complex (PKMTR)
Object type
Payload
Rocket body
Debris
Shape & HBR
Unknown shape, 0.1 m
Radar Cross Section
Small (<0.1 m²)

Expand to show TLE details & history
Last TLE update: 1 day ago

TLE from 1 day ago
0 COSMOS 1275 DEB
1 17631U 81053LA  25286.35062466  .00000939  00000-0  10409-2 0  9997
2 17631  82.9283  47.6039 0126932  45.4459  21.5582 13.67248544  8011
Epoch: 2025-10-13T08:24Z
TLE epoch observation values (Epoch: 2025-10-13T08:24:53.970Z)
Latitude
66.59744°
Longitude
-84.20858°
Altitude
933.916 km
Speed
7.435 km/s
True Right ascension
04h 16m 41s
True Declination
66° 28' 29"
Sunlit
Object was in daylight at epoch
Visualization orbit readout
Latitude
Unknown
Longitude
Unknown
Altitude
Unknown
Speed
Unknown
Apparent Right ascension
Unknown
Apparent Declination
Unknown
Sunlit
N/A
Visualization observer readout
Local Sidereal Time
02:35:19
Azimuth
Unknown
Elevation
Unknown
Doppler factor
Unknown
Orbital elements
Apogee altitude
1,100.361 km
Perigee altitude
912.889 km
Semi-major axis
7,384.762 km
Eccentricity
0.01269
Inclination
82.9283°
RAAN
47.6039°
Arg. of periapsis
45.4459°
True anomaly
22.10065°
Mean anomaly
21.5582°
Eccentric anomaly
21.82862°
Mean motion
3.4201 °/min
Orbital period
105.26 mins
BSTAR
0.0010409
Loading maneuver chart data...
Computing Atmospheric mass density...
Loading historical data...
Loading historical data...
Loading historical data...
Loading historical data...
Loading historical data...
Loading historical data...
Loading historical data...

Documentation

Showing up to 5 results
|